Regional Weather Roundup
Issued by NWS

Home | Current Version | Previous Version | Graphics & Text | Print | Product List | Glossary On
Versions: 1 2 3 4 5 6 7 8 9 10 11 12 13 14 15 16 17 18 19 20 21 22 23 24 25 26 27 28 29 30 31 32 33 34 35 36 37 38 39 40 41 42 43 44 45 46 47 48 49 50
000
ASUS43 KOAX 190610
RWRNE

WEATHER ROUNDUP FOR NEBRASKA
NATIONAL WEATHER SERVICE OMAHA NE
1200 AM CST SUN NOV 19 2017

NOTES: SATELLITE DATA IS BEING USED TO AUGMENT CLOUD COVER ABOVE
       12000 FEET.
       "FAIR" INDICATES FEW OR NO CLOUDS BELOW 12,000 FEET WITH NO
       SIGNIFICANT WEATHER AND/OR OBSTRUCTIONS TO VISIBILITY.


NEZ001>004-019>022-054>056-190700-
NEBRASKA PANHANDLE

CITY           SKY/WX    TMP DP  RH WIND       PRES   REMARKS
SCOTTSBLUFF    CLOUDY    22  15  75 NW5       30.21F WCI  16
6HR MIN TEMP:  19; 6HR MAX TEMP:  37;

ALLIANCE       CLOUDY    17  13  84 W6        30.19F WCI   9
6HR MIN TEMP:  15; 6HR MAX TEMP:  31;

CHADRON        CLOUDY    21  17  84 SW7       30.19S WCI  12
6HR MIN TEMP:  21; 6HR MAX TEMP:  33;

GORDON         FAIR      22  17  81 SW3       30.16F
6HR MIN TEMP:  21; 6HR MAX TEMP:  35;

KIMBALL        CLEAR     21  16  81 W7        30.22F WCI  12
SIDNEY         CLEAR     21  14  74 W8        30.23S WCI  11
6HR MIN TEMP:  19; 6HR MAX TEMP:  34;

$$

NEZ057>060-069>072-079>082-190700-
SOUTHWEST NEBRASKA

CITY           SKY/WX    TMP DP  RH WIND       PRES   REMARKS
NORTH PLATTE   CLEAR     20  17  88 NW3       30.23S
6HR MIN TEMP:  20; 6HR MAX TEMP:  34;

IMPERIAL       CLEAR     27  17  66 W9        30.26S WCI  18
6HR MIN TEMP:  25; 6HR MAX TEMP:  39;

LEXINGTON      CLEAR     25  20  83 N3        30.24R
MCCOOK         CLEAR     26  20  77 W8        30.26S WCI  18
6HR MIN TEMP:  26; 6HR MAX TEMP:  38;

OGALLALA       CLEAR     31  21  65 W7        30.23S WCI  25
$$

NEZ005>010-023>029-035>040-094-190700-
NORTH CENTRAL NEBRASKA

CITY           SKY/WX    TMP DP  RH WIND       PRES   REMARKS
VALENTINE      CLEAR     28  21  75 W6        30.17S WCI  22
6HR MIN TEMP:  26; 6HR MAX TEMP:  38;

AINSWORTH      CLOUDY    29  24  79 W8        30.17R WCI  21
BROKEN BOW     CLEAR     27  20  75 S6        30.20S WCI  20
6HR MIN TEMP:  25; 6HR MAX TEMP:  40;

O`NEILL        CLEAR     26  23  89 S3        30.17S
ORD            CLEAR     30  22  72 NW5       30.19F WCI  25
6HR MIN TEMP:  26; 6HR MAX TEMP:  34;

THEDFORD       CLEAR     26  21  82 SW6       30.20F WCI  19
$$

NEZ041-046>049-061>064-073>077-083>087-190700-
SOUTH CENTRAL NEBRASKA

CITY           SKY/WX    TMP DP  RH WIND       PRES   REMARKS
GRAND ISLAND   CLEAR     30  25  81 W6        30.22F WCI  24
6HR MIN TEMP:  29; 6HR MAX TEMP:  38;

AURORA         CLEAR     27  23  87 CALM      30.21F
HASTINGS       CLEAR     31  21  66 W6        30.23F WCI  25
6HR MIN TEMP:  27; 6HR MAX TEMP:  39;

HEBRON         CLEAR     30  24  80 W3        30.24S
HOLDREGE       CLEAR     31  23  72 W9        30.23S WCI  23
KEARNEY        CLEAR     32  22  66 NW3       30.23S
YORK           CLEAR     27  27 100 CALM      30.22F
$$

NEZ011>018-030>034-042>045-190700-
NORTHEAST NEBRASKA

CITY           SKY/WX    TMP DP  RH WIND       PRES   REMARKS
NORFOLK        CLEAR     23  20  88 W7        30.20R WCI  15
6HR MIN TEMP:  22; 6HR MAX TEMP:  32;

ALBION         CLEAR     25  22  88 NW3       30.21R
BLAIR          CLEAR     29  22  76 NW9       30.19S WCI  21
COLUMBUS       CLEAR     23  19  85 W3        30.23R
FREMONT        CLEAR     24  21  87 W6        30.22R WCI  17
TEKAMAH        CLEAR     26  20  77 W3        30.21R
6HR MIN TEMP:  24; 6HR MAX TEMP:  34;

WAYNE          CLEAR     24  20  87 NW3       30.20R
$$

NEZ050>053-065>068-078-088>093-190700-
SOUTHEAST NEBRASKA

CITY           SKY/WX    TMP DP  RH WIND       PRES   REMARKS
LINCOLN        CLEAR     24  19  81 NW3       30.24R
6HR MIN TEMP:  24; 6HR MAX TEMP:  42;

OMAHA EPPLEY   CLEAR     29  21  72 NW8       30.20S WCI  21
6HR MIN TEMP:  29; 6HR MAX TEMP:  38;

BEATRICE       CLEAR     29  26  86 W7        30.23R WCI  22
FALLS CITY     CLEAR     30  25  81 W7        30.22R WCI  23
6HR MIN TEMP:  30; 6HR MAX TEMP:  42;

NEBRASKA CITY  CLEAR     30  25  82 NW7       30.20S WCI  23
PLATTSMOUTH    CLEAR     29  23  80 NW7       30.20R WCI  22
$$

NEZ044-045-051>053-067-190700-
OMAHA AREA

CITY           SKY/WX    TMP DP  RH WIND       PRES   REMARKS
OMAHA EPPLEY   CLEAR     29  21  72 NW8       30.20S WCI  21
6HR MIN TEMP:  29; 6HR MAX TEMP:  38;

BLAIR          CLEAR     29  22  76 NW9       30.19S WCI  21
FREMONT        CLEAR     24  21  87 W6        30.22R WCI  17
MILLARD        CLEAR     32  23  70 NW7       30.21R WCI  26
OFFUTT AFB     CLEAR     29  21  72 NW8       30.20S WCI  21
PLATTSMOUTH    CLEAR     29  23  80 NW7       30.20R WCI  22
WAHOO          FAIR      30  24  77 NW8       30.22R WCI  23
$$




USA.gov is the U.S. government's official web portal to all federal, state and local government web resources and services.